Tekamah, NE

12:47 AM CDT on April 22, 2018 (GMT -0500)
Tekamah

Weather History for KTQE - August, 2013

Change the Weather History Date:

Sunday, August 4, 2013

  Actual Average Record
Temperature  
Mean Temperature 68 °F -  
Max Temperature 82 °F 85 °F 99 °F (1982)
Min Temperature 55 °F 62 °F 44 °F (1978)
Cooling Degree Days 4    
Growing Degree Days 18 (Base 50)    
Moisture  
Dew Point 59 °F    
Average Humidity 72    
Maximum Humidity 93    
Minimum Humidity 52    
Precipitation  
Precipitation 0.00 in - - ()
Sea Level Pressure  
Sea Level Pressure 30.09 in    
Wind  
Wind Speed 5 mph (SE)    
Max Wind Speed 21 mph    
Max Gust Speed 29 mph    
Visibility 9 miles    
Events      
Averages and records for this station are not official NWS values.
T = Trace of Precipitation, MM = Missing Value Source: NWS Daily Summary

Daily Weather History Graph

Daily Weather History Graph

Search for Another Location

Airport or City:

Astronomy

Aug. 04, 2013 Rise Set
Actual Time 6:22 AM CDT 8:38 PM CDT
Civil Twilight 5:51 AM CDT 9:09 PM CDT
Nautical Twilight 5:12 AM CDT 9:47 PM CDT
Astronomical Twilight 4:30 AM CDT 10:30 PM CDT
Moon 4:23 AM CDT (8/4) 7:02 PM CDT (8/4)
Length of Visible Light 15h 18m
Length of Day
14h 16m
Waning Crescent, 4% of the Moon is Illuminated
Aug 4
Waning Crescent
Aug 6
New
Aug 14
First Quarter
Aug 20
Full
Aug 28
Last Quarter

Hourly Weather History & Observations

Time (CDT) Temp. Heat Index Dew Point Humidity Pressure Visibility Wind Dir Wind Speed Gust Speed Precip Events Conditions
12:54 AM 60.1 °F - 57.0 °F 90% 30.17 in 9.0 mi North 4.6 mph - N/A   Clear
1:54 AM 57.9 °F - 55.9 °F 93% 30.15 in 7.0 mi NNW 4.6 mph - N/A   Clear
2:54 AM 57.0 °F - 55.0 °F 93% 30.14 in 7.0 mi NW 3.5 mph - N/A   Clear
3:54 AM 57.0 °F - 55.0 °F 93% 30.15 in 8.0 mi Calm Calm - N/A   Clear
4:54 AM 55.0 °F - 53.1 °F 93% 30.17 in 6.0 mi Calm Calm - N/A   Clear
5:54 AM 55.0 °F - 52.0 °F 89% 30.17 in 8.0 mi Calm Calm - N/A   Clear
6:54 AM 55.9 °F - 53.1 °F 90% 30.16 in 4.0 mi North 3.5 mph - N/A   Clear
7:54 AM 60.1 °F - 57.0 °F 90% 30.17 in 6.0 mi Calm Calm - N/A   Clear
8:54 AM 66.0 °F - 59.0 °F 78% 30.15 in 10.0 mi ENE 4.6 mph - N/A   Clear
9:54 AM 72.0 °F - 57.9 °F 61% 30.15 in 10.0 mi ESE 8.1 mph - N/A   Clear
10:54 AM 73.9 °F - 57.9 °F 57% 30.15 in 10.0 mi SSE 8.1 mph - N/A   Overcast
11:54 AM 75.9 °F - 57.0 °F 52% 30.14 in 10.0 mi SE 6.9 mph - N/A   Overcast
12:54 PM 75.9 °F - 57.9 °F 54% 30.12 in 10.0 mi ESE 8.1 mph - N/A   Overcast
1:54 PM 78.1 °F - 59.0 °F 52% 30.11 in 10.0 mi SE 8.1 mph - N/A   Overcast
2:54 PM 75.9 °F - 59.0 °F 56% 30.09 in 10.0 mi SSE 3.5 mph - N/A   Overcast
3:54 PM 79.0 °F - 61.0 °F 54% 30.01 in 10.0 mi South 20.7 mph 28.8 mph 0.00 in   Clear
4:54 PM 82.0 °F 83.1 °F 63.0 °F 52% 30.03 in 10.0 mi South 6.9 mph 16.1 mph N/A   Clear
5:54 PM 80.1 °F 81.2 °F 62.1 °F 54% 30.02 in 10.0 mi SE 5.8 mph - N/A   Overcast
6:54 PM 79.0 °F - 63.0 °F 58% 30.01 in 10.0 mi ESE 8.1 mph - N/A   Overcast
7:54 PM 78.1 °F - 64.9 °F 64% 30.00 in 10.0 mi SE 5.8 mph - N/A   Mostly Cloudy
8:54 PM 75.9 °F - 64.9 °F 69% 29.99 in 10.0 mi SE 5.8 mph - N/A   Overcast
9:54 PM 75.0 °F - 64.0 °F 69% 30.01 in 10.0 mi SSE 6.9 mph - N/A   Overcast
10:54 PM 73.0 °F - 64.9 °F 76% 30.01 in 10.0 mi South 5.8 mph - N/A   Mostly Cloudy
11:36 PM 69.8 °F - 64.4 °F 83% 30.04 in 9.0 mi South 5.8 mph - N/A   Mostly Cloudy
11:54 PM 71.1 °F - 66.0 °F 84% 30.00 in 9.0 mi South 5.8 mph - N/A   Overcast